Overview Statistics Trail Chart Weather Telemetry Raw packets
 

This is the latest recevied weather packets stored in our database for station/object IZ5MJO-13. If no packets are shown the sender has not sent any weather packets the latest 10 day(s).

<< 5 6 7 8 9 10 11 >>
Time Temp. Humidity Pressure Rain* Wind** Luminosity Snow
1788462322 25.56° C 44% 1008.7 hPa - - - -
1788461422 25.56° C 44% 1008.7 hPa - - - -
1788460522 26.11° C 42% 1008.5 hPa - - - -
1788459621 26.67° C 42% 1008.3 hPa - - - -
1788458721 26.67° C 40% 1008.1 hPa - - - -
1788457825 27.78° C 39% 1007.9 hPa - - - -
1788456924 28.89° C 37% 1007.8 hPa - - - -
1788456024 30° C 35% 1007.8 hPa - - - -
1788455124 33.33° C 30% 1007.7 hPa - - - -
1788454224 33.89° C 30% 1007.5 hPa - - - -
1788453323 33.89° C 29% 1007.6 hPa - - - -
1788452423 35.56° C 28% 1007.7 hPa - - - -
1788451523 35.56° C 26% 1007.7 hPa - - - -
1788450622 36.11° C 28% 1007.7 hPa - - - -
1788449736 38.33° C 26% 1008 hPa - - - -
1788449721 36.11° C 29% 1007.6 hPa - - - -
1788448821 36.67° C 28% 1007.7 hPa - - - -
1788447921 37.22° C 23% 1007.8 hPa - - - -
1788447021 37.78° C 29% 1007.8 hPa - - - -
1788446121 37.22° C 28% 1007.8 hPa - - - -
1788445221 37.22° C 28% 1007.9 hPa - - - -
1788444320 38.33° C 33% 1007.9 hPa - - - -
1788443420 37.78° C 32% 1008 hPa - - - -
1788442520 38.33° C 26% 1008 hPa - - - -
1788441620 37.78° C 31% 1008.1 hPa - - - -

* Rain since midnight (hover to see other rain measurements)
** Current wind speed in m/s (hover to see current wind gust speed)